DAL1200 MMUN-KMIA

Flight info

Callsign DAL1200
Flight time 1h 7m
Altitude 39000
Route NUDAL1A NUDAL UV106 PODON UG765 MAXIM SNDBR3
Aircraft A359/H-SDE2E3GHIJ3J4J5LM1ORWXY/LB1D1

Departure

Time 2026-05-03 20:45
Airport Cancún International Airport (MMUN)

Arrival

Time 2026-05-03 21:52
Airport Miami International Airport (KMIA)
Time Latitude Longitude Altitude Speed Heading
2026-05-03 20:16 21.03552 -86.86806 34 ft 0 kts 330°
2026-05-03 20:33 21.03539 -86.86798 32 ft 4 kts 322°
2026-05-03 20:33 21.03521 -86.86780 32 ft 4 kts 299°
2026-05-03 20:33 21.03513 -86.86757 33 ft 4 kts 266°
2026-05-03 20:33 21.03518 -86.86733 32 ft 4 kts 237°
2026-05-03 20:34 21.03534 -86.86713 31 ft 4 kts 216°
2026-05-03 20:34 21.03541 -86.86708 30 ft 3 kts 213°
2026-05-03 20:38 21.03504 -86.86734 33 ft 13 kts 213°
2026-05-03 20:38 21.03459 -86.86765 33 ft 8 kts 213°
2026-05-03 20:38 21.03440 -86.86779 33 ft 0 kts 214°
2026-05-03 20:38 21.03437 -86.86781 33 ft 4 kts 214°
2026-05-03 20:39 21.03392 -86.86813 33 ft 8 kts 214°
2026-05-03 20:39 21.03348 -86.86860 33 ft 8 kts 250°
2026-05-03 20:39 21.03362 -86.86915 33 ft 14 kts 299°
2026-05-03 20:39 21.03452 -86.87061 34 ft 27 kts 304°
2026-05-03 20:40 21.03539 -86.87210 34 ft 21 kts 311°
2026-05-03 20:40 21.03618 -86.87327 34 ft 19 kts 305°
2026-05-03 20:40 21.03690 -86.87441 35 ft 18 kts 303°
2026-05-03 20:40 21.03746 -86.87530 35 ft 11 kts 303°
2026-05-03 20:41 21.03788 -86.87597 35 ft 10 kts 303°
2026-05-03 20:41 21.03825 -86.87658 35 ft 9 kts 303°
2026-05-03 20:41 21.03858 -86.87711 35 ft 8 kts 303°
2026-05-03 20:41 21.03891 -86.87765 34 ft 12 kts 304°
2026-05-03 20:42 21.03963 -86.87876 34 ft 22 kts 305°
2026-05-03 20:42 21.04045 -86.88005 34 ft 20 kts 304°
2026-05-03 20:42 21.04120 -86.88124 34 ft 18 kts 304°
2026-05-03 20:42 21.04187 -86.88232 34 ft 17 kts 304°
2026-05-03 20:43 21.04256 -86.88341 35 ft 23 kts 304°
2026-05-03 20:43 21.04354 -86.88498 35 ft 25 kts 303°
2026-05-03 20:43 21.04445 -86.88644 35 ft 23 kts 304°
2026-05-03 20:43 21.04528 -86.88778 35 ft 21 kts 303°
2026-05-03 20:44 21.04605 -86.88903 35 ft 19 kts 303°
2026-05-03 20:44 21.04637 -86.88988 35 ft 7 kts 256°
2026-05-03 20:44 21.04609 -86.89026 34 ft 6 kts 223°
2026-05-03 20:44 21.04557 -86.89060 33 ft 11 kts 194°
2026-05-03 20:45 21.04522 -86.89051 33 ft 6 kts 147°
2026-05-03 20:45 21.04356 -86.88805 35 ft 84 kts 124°
2026-05-03 20:45 21.03867 -86.88028 43 ft 164 kts 124°
2026-05-03 20:45 21.03221 -86.86941 875 ft 174 kts 111°
2026-05-03 20:46 21.02679 -86.85731 1723 ft 192 kts 115°
2026-05-03 20:46 21.02034 -86.84403 2102 ft 211 kts 118°
2026-05-03 20:46 21.01280 -86.82959 2369 ft 235 kts 120°
2026-05-03 20:46 21.00431 -86.81367 2731 ft 254 kts 120°
2026-05-03 20:47 20.99539 -86.79697 3346 ft 261 kts 120°
2026-05-03 20:47 20.98823 -86.77943 3949 ft 268 kts 107°
2026-05-03 20:47 20.98647 -86.75976 4577 ft 272 kts 85°
2026-05-03 20:47 20.99000 -86.73981 5292 ft 274 kts 76°
2026-05-03 20:48 20.99493 -86.71990 5921 ft 279 kts 74°
2026-05-03 20:48 21.00015 -86.69968 6573 ft 284 kts 74°
2026-05-03 20:48 21.00539 -86.67911 7223 ft 288 kts 74°
2026-05-03 20:48 21.01062 -86.65830 7938 ft 291 kts 74°
2026-05-03 20:49 21.01585 -86.63731 8697 ft 293 kts 74°
2026-05-03 20:49 21.02112 -86.61609 9446 ft 296 kts 72°
2026-05-03 20:49 21.02667 -86.59498 10153 ft 299 kts 71°
2026-05-03 20:49 21.03253 -86.57300 10521 ft 316 kts 71°
2026-05-03 20:50 21.03856 -86.54970 10810 ft 334 kts 73°
2026-05-03 20:50 21.04467 -86.52506 11084 ft 350 kts 73°
2026-05-03 20:50 21.05097 -86.49939 11472 ft 361 kts 74°
2026-05-03 20:50 21.05733 -86.47324 12008 ft 366 kts 73°
2026-05-03 20:51 21.06393 -86.44669 12572 ft 370 kts 73°
2026-05-03 20:51 21.07047 -86.41993 13125 ft 374 kts 74°
2026-05-03 20:51 21.07708 -86.39278 13696 ft 378 kts 74°
2026-05-03 20:51 21.08375 -86.36536 14179 ft 382 kts 74°
2026-05-03 20:52 21.09043 -86.33802 14641 ft 386 kts 74°
2026-05-03 20:52 21.09726 -86.31002 15114 ft 390 kts 74°
2026-05-03 20:52 21.10415 -86.28177 15586 ft 393 kts 74°
2026-05-03 20:52 21.11104 -86.25332 16058 ft 397 kts 74°
2026-05-03 20:53 21.11797 -86.22438 16520 ft 401 kts 74°
2026-05-03 20:53 21.12499 -86.19529 16991 ft 405 kts 74°
2026-05-03 20:53 21.13210 -86.16598 17452 ft 408 kts 74°
2026-05-03 20:53 21.13921 -86.13676 17903 ft 412 kts 74°
2026-05-03 20:54 21.14644 -86.10701 18341 ft 416 kts 74°
2026-05-03 20:54 21.16112 -86.04656 19159 ft 422 kts 74°
2026-05-03 20:54 21.16855 -86.01599 19586 ft 425 kts 74°
2026-05-03 20:55 21.17602 -85.98525 20018 ft 428 kts 74°
2026-05-03 20:55 21.18352 -85.95432 20465 ft 431 kts 74°
2026-05-03 20:55 21.19107 -85.92314 20899 ft 434 kts 74°
2026-05-03 20:55 21.19866 -85.89176 21340 ft 437 kts 74°
2026-05-03 20:56 21.20630 -85.86005 21782 ft 440 kts 74°
2026-05-03 20:56 21.21390 -85.82852 22207 ft 443 kts 74°
2026-05-03 20:56 21.22162 -85.79640 22643 ft 446 kts 74°
2026-05-03 20:56 21.22933 -85.76396 23072 ft 450 kts 75°
2026-05-03 20:57 21.23704 -85.73123 23506 ft 453 kts 75°
2026-05-03 20:57 21.24485 -85.69830 23879 ft 456 kts 75°
2026-05-03 20:57 21.25290 -85.66567 24236 ft 459 kts 73°
2026-05-03 20:57 21.26448 -85.63372 24571 ft 461 kts 62°
2026-05-03 20:58 21.28171 -85.60469 24958 ft 462 kts 51°
2026-05-03 20:58 21.30279 -85.57869 25359 ft 463 kts 44°
2026-05-03 20:58 21.32606 -85.55464 25748 ft 465 kts 40°
2026-05-03 20:58 21.35045 -85.53157 26126 ft 468 kts 38°
2026-05-03 20:59 21.37533 -85.50871 26509 ft 472 kts 38°
2026-05-03 20:59 21.40038 -85.48562 26886 ft 476 kts 38°
2026-05-03 20:59 21.42536 -85.46220 27276 ft 479 kts 39°
2026-05-03 20:59 21.45042 -85.43828 27663 ft 483 kts 39°
2026-05-03 21:00 21.47513 -85.41438 28048 ft 486 kts 40°
2026-05-03 21:00 21.49180 -85.39814 28304 ft 488 kts 40°
2026-05-03 21:00 21.52557 -85.36506 28824 ft 492 kts 40°
2026-05-03 21:00 21.55094 -85.34015 29180 ft 496 kts 40°
2026-05-03 21:01 21.57650 -85.31504 29563 ft 498 kts 40°
2026-05-03 21:01 21.60186 -85.29015 29945 ft 501 kts 40°
2026-05-03 21:01 21.62773 -85.26476 30257 ft 504 kts 40°
2026-05-03 21:01 21.65372 -85.23926 30570 ft 506 kts 40°
2026-05-03 21:02 21.67974 -85.21373 30891 ft 508 kts 40°
2026-05-03 21:02 21.70599 -85.18797 31201 ft 510 kts 40°
2026-05-03 21:02 21.73228 -85.16215 31496 ft 512 kts 40°
2026-05-03 21:02 21.75868 -85.13622 31778 ft 514 kts 40°
2026-05-03 21:03 21.78489 -85.11045 32047 ft 517 kts 39°
2026-05-03 21:03 21.81153 -85.08426 32304 ft 520 kts 39°
2026-05-03 21:03 21.83833 -85.05789 32558 ft 522 kts 39°
2026-05-03 21:03 21.86522 -85.03141 32807 ft 525 kts 39°
2026-05-03 21:04 21.89220 -85.00483 33028 ft 527 kts 39°
2026-05-03 21:04 21.91932 -84.97811 33261 ft 530 kts 39°
2026-05-03 21:04 21.94660 -84.95120 33484 ft 532 kts 39°
2026-05-03 21:04 21.97406 -84.92412 33683 ft 535 kts 39°
2026-05-03 21:05 22.00124 -84.89728 33876 ft 538 kts 38°
2026-05-03 21:05 22.02896 -84.86991 34117 ft 539 kts 38°
2026-05-03 21:05 22.05653 -84.84265 34390 ft 539 kts 38°
2026-05-03 21:05 22.08414 -84.81534 34660 ft 538 kts 38°
2026-05-03 21:06 22.11173 -84.78802 34936 ft 538 kts 38°
2026-05-03 21:06 22.13930 -84.76073 35244 ft 537 kts 38°
2026-05-03 21:06 22.16690 -84.73339 35536 ft 536 kts 38°
2026-05-03 21:06 22.19412 -84.70640 35810 ft 536 kts 38°
2026-05-03 21:07 22.22160 -84.67916 36074 ft 535 kts 38°
2026-05-03 21:07 22.24899 -84.65199 36349 ft 535 kts 38°
2026-05-03 21:07 22.27647 -84.62471 36587 ft 534 kts 38°
2026-05-03 21:07 22.30388 -84.59748 36836 ft 534 kts 38°
2026-05-03 21:08 22.33124 -84.57029 37091 ft 534 kts 38°
2026-05-03 21:08 22.35829 -84.54340 37328 ft 534 kts 38°
2026-05-03 21:08 22.38557 -84.51626 37558 ft 533 kts 38°
2026-05-03 21:08 22.41289 -84.48905 37777 ft 533 kts 38°
2026-05-03 21:09 22.44016 -84.46190 37991 ft 533 kts 38°
2026-05-03 21:09 22.46741 -84.43474 38225 ft 533 kts 38°
2026-05-03 21:09 22.49474 -84.40749 38458 ft 532 kts 38°
2026-05-03 21:09 22.52203 -84.38026 38656 ft 532 kts 38°
2026-05-03 21:10 22.54889 -84.35344 38903 ft 530 kts 38°
2026-05-03 21:10 22.57591 -84.32642 38996 ft 521 kts 38°
2026-05-03 21:10 22.60227 -84.30001 39006 ft 510 kts 38°
2026-05-03 21:10 22.62815 -84.27408 39008 ft 506 kts 38°
2026-05-03 21:11 22.67664 -84.21849 39011 ft 508 kts 45°
2026-05-03 21:11 22.72221 -84.16030 39012 ft 510 kts 46°
2026-05-03 21:12 22.76784 -84.10125 39008 ft 510 kts 46°
2026-05-03 21:12 22.81442 -84.04224 39009 ft 518 kts 46°
2026-05-03 21:13 22.86095 -83.98325 39014 ft 517 kts 46°
2026-05-03 21:13 22.90790 -83.92381 39009 ft 518 kts 46°
2026-05-03 21:14 22.95454 -83.86481 39005 ft 509 kts 46°
2026-05-03 21:14 22.99992 -83.80716 39001 ft 502 kts 46°
2026-05-03 21:15 23.04515 -83.74970 39011 ft 501 kts 46°
2026-05-03 21:15 23.09042 -83.69205 39006 ft 501 kts 46°
2026-05-03 21:16 23.13572 -83.63428 39005 ft 501 kts 46°
2026-05-03 21:16 23.18069 -83.57687 39009 ft 501 kts 46°
2026-05-03 21:17 23.21834 -83.52876 39006 ft 502 kts 46°
2026-05-03 21:17 23.27130 -83.46103 39002 ft 502 kts 46°
2026-05-03 21:18 23.31659 -83.40303 39011 ft 503 kts 46°
2026-05-03 21:18 23.35980 -83.34763 39008 ft 503 kts 46°
2026-05-03 21:19 23.40504 -83.28956 39007 ft 503 kts 46°
2026-05-03 21:19 23.45043 -83.23122 39009 ft 504 kts 46°
2026-05-03 21:20 23.49588 -83.17276 39008 ft 504 kts 46°
2026-05-03 21:20 23.54090 -83.11478 39009 ft 504 kts 46°
2026-05-03 21:21 23.58619 -83.05634 39010 ft 504 kts 46°
2026-05-03 21:21 23.63158 -82.99764 38996 ft 505 kts 46°
2026-05-03 21:22 23.67658 -82.93942 39020 ft 505 kts 47°
2026-05-03 21:22 23.72191 -82.88070 39002 ft 505 kts 47°
2026-05-03 21:23 23.76722 -82.82194 39005 ft 506 kts 47°
2026-05-03 21:23 23.80494 -82.77298 39005 ft 506 kts 47°
2026-05-03 21:24 23.85034 -82.71397 39006 ft 507 kts 47°
2026-05-03 21:24 23.89583 -82.65479 39006 ft 508 kts 47°
2026-05-03 21:25 23.94108 -82.59585 39005 ft 508 kts 47°
2026-05-03 21:25 23.98657 -82.53651 39006 ft 509 kts 47°
2026-05-03 21:26 24.03326 -82.47877 39006 ft 507 kts 42°
2026-05-03 21:26 24.08241 -82.42314 39004 ft 508 kts 42°
2026-05-03 21:27 24.13107 -82.36737 39008 ft 508 kts 43°
2026-05-03 21:27 24.17540 -82.30653 39006 ft 515 kts 60°
2026-05-03 21:28 24.20702 -82.23604 39005 ft 515 kts 64°
2026-05-03 21:28 24.23750 -82.16552 39006 ft 515 kts 63°
2026-05-03 21:29 24.26846 -82.09427 38700 ft 511 kts 63°
2026-05-03 21:29 24.28357 -82.05955 38048 ft 512 kts 63°
2026-05-03 21:29 24.29898 -82.02413 37368 ft 514 kts 63°
2026-05-03 21:30 24.31442 -81.98865 36721 ft 516 kts 64°
2026-05-03 21:30 24.32992 -81.95298 36122 ft 518 kts 64°
2026-05-03 21:30 24.34545 -81.91722 35496 ft 520 kts 64°
2026-05-03 21:30 24.36088 -81.88167 34824 ft 523 kts 64°
2026-05-03 21:31 24.37665 -81.84532 34109 ft 519 kts 64°
2026-05-03 21:31 24.39217 -81.80949 33541 ft 526 kts 64°
2026-05-03 21:31 24.40796 -81.77301 33034 ft 527 kts 64°
2026-05-03 21:31 24.42349 -81.73710 32548 ft 527 kts 64°
2026-05-03 21:32 24.43922 -81.70072 32074 ft 527 kts 63°
2026-05-03 21:32 24.45643 -81.66516 31592 ft 527 kts 56°
2026-05-03 21:32 24.47816 -81.63280 31134 ft 525 kts 48°
2026-05-03 21:32 24.50144 -81.60188 30658 ft 525 kts 47°
2026-05-03 21:33 24.52494 -81.57108 30193 ft 526 kts 47°
2026-05-03 21:33 24.54822 -81.54046 29666 ft 527 kts 47°
2026-05-03 21:33 24.57167 -81.50948 29180 ft 527 kts 47°
2026-05-03 21:33 24.59523 -81.47827 28715 ft 527 kts 47°
2026-05-03 21:34 24.61856 -81.44730 28259 ft 522 kts 47°
2026-05-03 21:34 24.64132 -81.41700 27763 ft 502 kts 47°
2026-05-03 21:34 24.66289 -81.38822 27323 ft 484 kts 47°
2026-05-03 21:34 24.68430 -81.35972 26890 ft 481 kts 47°
2026-05-03 21:35 24.70549 -81.33153 26422 ft 473 kts 47°
2026-05-03 21:35 24.72640 -81.30369 26003 ft 471 kts 47°
2026-05-03 21:35 24.74723 -81.27589 25565 ft 468 kts 48°
2026-05-03 21:35 24.76763 -81.24865 25125 ft 466 kts 48°
2026-05-03 21:36 24.78820 -81.22117 24698 ft 463 kts 48°
2026-05-03 21:36 24.80857 -81.19391 24256 ft 454 kts 48°
2026-05-03 21:36 24.82867 -81.16702 23833 ft 452 kts 48°
2026-05-03 21:36 24.84870 -81.14037 23365 ft 450 kts 47°
2026-05-03 21:37 24.87132 -81.11713 23044 ft 441 kts 32°
2026-05-03 21:37 24.89797 -81.10068 22417 ft 435 kts 20°
2026-05-03 21:37 24.92503 -81.08756 21822 ft 429 kts 18°
2026-05-03 21:37 24.95235 -81.07471 21284 ft 427 kts 19°
2026-05-03 21:38 24.97963 -81.06169 20756 ft 426 kts 19°
2026-05-03 21:38 25.00680 -81.04853 20239 ft 425 kts 19°
2026-05-03 21:38 25.03383 -81.03532 19706 ft 424 kts 20°
2026-05-03 21:38 25.06036 -81.02227 19203 ft 414 kts 20°
2026-05-03 21:39 25.08628 -81.00949 18700 ft 413 kts 20°
2026-05-03 21:39 25.11243 -80.99659 18155 ft 406 kts 20°
2026-05-03 21:39 25.13784 -80.98399 17630 ft 396 kts 20°
2026-05-03 21:39 25.16311 -80.97151 17133 ft 398 kts 20°
2026-05-03 21:40 25.18836 -80.95904 16640 ft 396 kts 20°
2026-05-03 21:40 25.21338 -80.94665 16157 ft 393 kts 20°
2026-05-03 21:40 25.23832 -80.93430 15663 ft 391 kts 20°
2026-05-03 21:40 25.26310 -80.92202 15200 ft 389 kts 20°
2026-05-03 21:41 25.28768 -80.90983 14720 ft 386 kts 20°
2026-05-03 21:41 25.31224 -80.89764 14247 ft 384 kts 20°
2026-05-03 21:41 25.33632 -80.88570 13776 ft 382 kts 20°
2026-05-03 21:41 25.36051 -80.87369 13278 ft 379 kts 21°
2026-05-03 21:42 25.38453 -80.86175 12806 ft 375 kts 21°
2026-05-03 21:42 25.40826 -80.85023 12329 ft 371 kts 19°
2026-05-03 21:42 25.43198 -80.83932 11869 ft 367 kts 19°
2026-05-03 21:42 25.45545 -80.82867 11420 ft 363 kts 19°
2026-05-03 21:43 25.47909 -80.81926 10972 ft 357 kts 15°
2026-05-03 21:43 25.50200 -80.81096 10637 ft 335 kts 14°
2026-05-03 21:43 25.52312 -80.80329 10403 ft 313 kts 14°
2026-05-03 21:43 25.54352 -80.79581 9887 ft 306 kts 14°
2026-05-03 21:44 25.56386 -80.78833 9391 ft 309 kts 15°
2026-05-03 21:44 25.58411 -80.78079 8986 ft 302 kts 15°
2026-05-03 21:44 25.60404 -80.77331 8692 ft 304 kts 15°
2026-05-03 21:44 25.62391 -80.76584 8412 ft 299 kts 15°
2026-05-03 21:45 25.64311 -80.75692 8018 ft 308 kts 26°
2026-05-03 21:45 25.65917 -80.74114 7669 ft 306 kts 47°
2026-05-03 21:45 25.67206 -80.72263 7176 ft 304 kts 52°
2026-05-03 21:45 25.68448 -80.70357 6785 ft 303 kts 53°
2026-05-03 21:46 25.69690 -80.68472 6391 ft 302 kts 52°
2026-05-03 21:46 25.70941 -80.66603 6060 ft 301 kts 52°
2026-05-03 21:46 25.72175 -80.64776 5789 ft 298 kts 52°
2026-05-03 21:46 25.73416 -80.62951 5323 ft 294 kts 51°
2026-05-03 21:47 25.74644 -80.61150 4877 ft 289 kts 52°
2026-05-03 21:47 25.75853 -80.59380 4513 ft 287 kts 52°
2026-05-03 21:47 25.77002 -80.57617 4228 ft 285 kts 56°
2026-05-03 21:47 25.77654 -80.55575 4027 ft 279 kts 82°
2026-05-03 21:48 25.77821 -80.53502 3871 ft 257 kts 88°
2026-05-03 21:48 25.77853 -80.51609 3595 ft 241 kts 90°
2026-05-03 21:48 25.77869 -80.49794 3277 ft 229 kts 89°
2026-05-03 21:48 25.77916 -80.48068 2983 ft 217 kts 88°
2026-05-03 21:49 25.77989 -80.46438 2707 ft 206 kts 87°
2026-05-03 21:49 25.78055 -80.44892 2423 ft 195 kts 88°
2026-05-03 21:49 25.78112 -80.43442 2172 ft 185 kts 87°
2026-05-03 21:49 25.78169 -80.42050 1939 ft 177 kts 87°
2026-05-03 21:50 25.78225 -80.40708 1704 ft 168 kts 87°
2026-05-03 21:50 25.78275 -80.39477 1492 ft 157 kts 87°
2026-05-03 21:50 25.78324 -80.38306 1302 ft 148 kts 87°
2026-05-03 21:50 25.78372 -80.37163 1112 ft 147 kts 86°
2026-05-03 21:51 25.78429 -80.36042 929 ft 147 kts 86°
2026-05-03 21:51 25.78472 -80.34913 723 ft 146 kts 88°
2026-05-03 21:51 25.78500 -80.33796 526 ft 143 kts 86°
2026-05-03 21:51 25.78551 -80.32689 363 ft 144 kts 84°
2026-05-03 21:52 25.78609 -80.31601 140 ft 142 kts 85°
2026-05-03 21:52 25.78660 -80.30523 21 ft 133 kts 86°
2026-05-03 21:52 25.78685 -80.29684 21 ft 86 kts 87°
2026-05-03 21:52 25.78705 -80.29197 22 ft 47 kts 87°
2026-05-03 21:53 25.78727 -80.28854 21 ft 43 kts 82°
2026-05-03 21:53 25.78841 -80.28659 21 ft 7 kts 41°
2026-05-03 21:53 25.78842 -80.28658 21 ft 0 kts 41°
2026-05-03 21:54 25.78844 -80.28656 21 ft 1 kts 41°
2026-05-03 21:54 25.78875 -80.28582 21 ft 18 kts 82°
2026-05-03 21:54 25.78882 -80.28446 21 ft 18 kts 88°
2026-05-03 21:54 25.78887 -80.28306 21 ft 19 kts 87°
2026-05-03 21:55 25.78895 -80.28162 22 ft 19 kts 82°
2026-05-03 21:55 25.78903 -80.28019 22 ft 18 kts 99°
2026-05-03 21:55 25.78872 -80.27916 22 ft 14 kts 93°
2026-05-03 21:55 25.78875 -80.27807 21 ft 15 kts 87°
2026-05-03 21:56 25.78880 -80.27691 21 ft 16 kts 87°
2026-05-03 21:56 25.78897 -80.27571 21 ft 16 kts 78°
2026-05-03 21:56 25.78937 -80.27477 21 ft 11 kts 50°
2026-05-03 21:56 25.78974 -80.27432 21 ft 4 kts 46°
2026-05-03 21:57 25.78994 -80.27408 21 ft 4 kts 46°
2026-05-03 21:57 25.79002 -80.27399 21 ft 3 kts 46°
2026-05-03 21:57 25.79004 -80.27396 21 ft 0 kts 46°